Weather History for Concordia, KS

Change the Weather History Date:

Tuesday, January 31, 2012

  Actual Average Record
Temperature  
Mean Temperature 47 °F 29 °F  
Max Temperature 62 °F 40 °F 74 °F (1989)
Min Temperature 32 °F 19 °F -14 °F (1918)
Degree Days  
Heating Degree Days 18 36  
Month to date heating degree days 948 1130  
Since 1 July heating degree days 2917 3304  
Cooling Degree Days 0 0  
Month to date cooling degree days 0 0  
Year to date cooling degree days 0 0  
Moisture  
Dew Point 29 °F    
Average Humidity 59    
Maximum Humidity 92    
Minimum Humidity 25    
Precipitation  
Precipitation 0.00 in 0.03 in 0.93 in (1998)
Month to date precipitation 0.32 0.58  
Year to date precipitation 0.32 0.58  
Snow  
Snow 0.00 in 0.20 in 3.00 in (1956)
Month to date snowfall 3.1 5.7  
Year to date snowfall 3.1 5.7  
Since 1 July snowfall 4.0 12.2  
Snow Depth 0.00 in    
Sea Level Pressure  
Sea Level Pressure 29.92 in    
Wind  
Wind Speed 9 mph (WNW)    
Max Wind Speed 22 mph    
Max Gust Speed 29 mph    
Visibility 10 miles    
Events      
T = Trace of Precipitation, MM = Missing Value Source: NWS Daily Summary

Daily Weather History Graph

Daily Weather History Graph

Search for Another Location

Airport:

Trip Planner

Search our weather history database for the weather conditions in past years. The results will help you decide how hot, cold, wet, or windy it might be!

Date:

Astronomy

Jan. 31, 2012 Rise Set
Actual Time 7:39 AM CST 5:49 PM CST
Civil Twilight 7:10 AM CST 6:17 PM CST
Nautical Twilight 6:38 AM CST 6:49 PM CST
Astronomical Twilight 6:07 AM CST 7:21 PM CST
Moon 11:40 AM CST (1/31) 1:28 AM CST (1/31)
Length of Visible Light 11h 06m
Length of Day
10h 09m
First Quarter, 55% of the Moon is Illuminated
Jan 31
First Quarter
Feb 7
Full
Feb 14
Last Quarter
Feb 21
New
Feb 29
First Quarter

Hourly Weather History & Observations

Time (CST) Temp. Windchill Dew Point Humidity Pressure Visibility Wind Dir Wind Speed Gust Speed Precip Events Conditions
12:55 AM 46.0 °F 38.8 °F 39.9 °F 79% 29.75 in 10.0 mi SSW 18.4 mph 25.3 mph N/A   Clear
1:55 AM 45.0 °F 41.8 °F 39.9 °F 82% 29.76 in 10.0 mi SW 5.8 mph - N/A   Clear
2:55 AM 37.9 °F 32.1 °F 36.0 °F 93% 29.80 in 10.0 mi NW 8.1 mph - N/A   Clear
3:55 AM 37.0 °F - 35.1 °F 93% 29.77 in 8.0 mi Calm Calm - N/A   Clear
4:55 AM 35.1 °F 29.3 °F 34.0 °F 96% 29.78 in 9.0 mi SW 6.9 mph - N/A   Clear
5:55 AM 36.0 °F 32.1 °F 34.0 °F 93% 29.80 in 10.0 mi West 4.6 mph - N/A   Clear
6:55 AM 35.1 °F 30.1 °F 30.9 °F 85% 29.83 in 10.0 mi WSW 5.8 mph - N/A   Clear
7:55 AM 35.1 °F 27.9 °F 28.9 °F 78% 29.86 in 10.0 mi WSW 9.2 mph - N/A   Clear
8:55 AM 37.0 °F 30.4 °F 28.9 °F 73% 29.89 in 10.0 mi West 9.2 mph - N/A   Clear
9:55 AM 44.1 °F 39.0 °F 28.9 °F 55% 29.91 in 10.0 mi NW 9.2 mph - N/A   Clear
10:55 AM 52.0 °F - 32.0 °F 47% 29.93 in 10.0 mi NNW 13.8 mph 19.6 mph N/A   Clear
11:55 AM 57.0 °F - 32.0 °F 39% 29.93 in 10.0 mi NNW 19.6 mph 24.2 mph N/A   Clear
12:55 PM 59.0 °F - 30.9 °F 35% 29.93 in 10.0 mi NNW 18.4 mph 25.3 mph N/A   Clear
1:55 PM 60.1 °F - 28.9 °F 31% 29.92 in 10.0 mi NNW 15.0 mph 21.9 mph N/A   Clear
2:55 PM 61.0 °F - 27.0 °F 27% 29.94 in 10.0 mi NNW 16.1 mph 21.9 mph N/A   Clear
3:55 PM 61.0 °F - 26.1 °F 26% 29.95 in 10.0 mi NW 12.7 mph 18.4 mph N/A   Clear
4:55 PM 57.9 °F - 23.0 °F 26% 29.98 in 10.0 mi NW 8.1 mph - N/A   Clear
5:55 PM 54.0 °F - 23.0 °F 30% 30.01 in 10.0 mi WNW 3.5 mph - N/A   Clear
6:55 PM 48.9 °F - 21.9 °F 35% 30.04 in 10.0 mi WNW 5.8 mph - N/A   Clear
7:55 PM 46.9 °F - 21.9 °F 37% 30.06 in 10.0 mi NW 4.6 mph - N/A   Clear
8:55 PM 43.0 °F 39.5 °F 21.9 °F 43% 30.07 in 10.0 mi West 5.8 mph - N/A   Clear
9:55 PM 42.1 °F 39.2 °F 23.0 °F 47% 30.08 in 10.0 mi West 4.6 mph - N/A   Clear
10:55 PM 42.1 °F 39.2 °F 23.0 °F 47% 30.09 in 10.0 mi West 4.6 mph - N/A   Clear
11:55 PM 39.0 °F 34.8 °F 23.0 °F 53% 30.10 in 10.0 mi West 5.8 mph - N/A   Clear